RYR63TC LIME-LPPR

Flight info

Callsign RYR63TC
Flight time N/A
Altitude 29000
Route VOG DCT TOP/N0441F380 DCT IXUSA DCT RONOP DCT GIGUS DCT BALSI DCT GIPNO DCT RUSIT/N0419F310 DCT ESIDA DCT LERGA DCT MINSO/N0444F390 DCT NARAK DCT AGN DCT PIPOR L866 PPN N976 ZMR L155 ADORO/N0442F380 DCT ELGIX
Aircraft B38M/M-SDE1FGHILORVWXY/HB1

Departure

Time 2026-05-01 15:05
Airport Il Caravaggio International Airport (LIME)

Arrival

Time N/A
Airport Francisco de Sá Carneiro Airport (LPPR)
Time Latitude Longitude Altitude Speed Heading
2026-05-01 14:42 45.66729 9.69555 790 ft 0 kts 195°
2026-05-01 14:55 45.66732 9.69556 790 ft 3 kts 195°
2026-05-01 14:55 45.66757 9.69566 790 ft 4 kts 195°
2026-05-01 14:55 45.66783 9.69575 790 ft 2 kts 195°
2026-05-01 14:55 45.66804 9.69582 790 ft 4 kts 179°
2026-05-01 14:56 45.66824 9.69571 790 ft 4 kts 116°
2026-05-01 14:56 45.66831 9.69537 790 ft 4 kts 105°
2026-05-01 14:56 45.66835 9.69513 790 ft 0 kts 105°
2026-05-01 14:58 45.66834 9.69519 790 ft 2 kts 105°
2026-05-01 14:59 45.66828 9.69547 790 ft 4 kts 106°
2026-05-01 14:59 45.66817 9.69605 790 ft 8 kts 105°
2026-05-01 14:59 45.66799 9.69699 790 ft 12 kts 104°
2026-05-01 14:59 45.66775 9.69832 790 ft 16 kts 105°
2026-05-01 15:00 45.66710 9.70172 790 ft 19 kts 105°
2026-05-01 15:00 45.66674 9.70366 790 ft 21 kts 103°
2026-05-01 15:00 45.66635 9.70576 790 ft 23 kts 105°
2026-05-01 15:01 45.66594 9.70801 790 ft 24 kts 104°
2026-05-01 15:01 45.66550 9.71035 790 ft 25 kts 105°
2026-05-01 15:01 45.66490 9.71280 790 ft 27 kts 105°
2026-05-01 15:01 45.66441 9.71542 790 ft 28 kts 101°
2026-05-01 15:02 45.66471 9.71817 790 ft 29 kts 89°
2026-05-01 15:02 45.66445 9.72009 790 ft 30 kts 106°
2026-05-01 15:02 45.66377 9.72378 790 ft 24 kts 105°
2026-05-01 15:02 45.66446 9.72497 790 ft 16 kts 310°
2026-05-01 15:03 45.66459 9.72439 790 ft 0 kts 285°
2026-05-01 15:04 45.66478 9.72341 790 ft 38 kts 285°
2026-05-01 15:04 45.66614 9.71605 790 ft 113 kts 285°
2026-05-01 15:04 45.66870 9.70223 795 ft 171 kts 282°
2026-05-01 15:05 45.67211 9.68462 1306 ft 188 kts 285°
2026-05-01 15:05 45.67285 9.66673 2425 ft 176 kts 254°
2026-05-01 15:05 45.66719 9.65099 3041 ft 187 kts 226°
2026-05-01 15:05 45.65659 9.64069 3794 ft 184 kts 205°
2026-05-01 15:06 45.64574 9.63039 4366 ft 190 kts 224°
2026-05-01 15:06 45.63649 9.61726 5059 ft 192 kts 225°
2026-05-01 15:06 45.62685 9.60364 5698 ft 195 kts 225°
2026-05-01 15:06 45.61704 9.58979 6186 ft 202 kts 225°
2026-05-01 15:07 45.60668 9.57487 6536 ft 223 kts 225°
2026-05-01 15:07 45.59526 9.55847 6895 ft 242 kts 225°
2026-05-01 15:07 45.58310 9.54108 7491 ft 248 kts 225°
2026-05-01 15:07 45.57096 9.52376 8226 ft 252 kts 225°
2026-05-01 15:08 45.55845 9.50587 8898 ft 259 kts 225°
2026-05-01 15:08 45.54534 9.48684 9257 ft 278 kts 225°
2026-05-01 15:08 45.53115 9.46632 9671 ft 295 kts 225°
2026-05-01 15:08 45.51682 9.44558 10398 ft 297 kts 226°
2026-05-01 15:09 45.50193 9.42409 10800 ft 314 kts 225°
2026-05-01 15:09 45.48598 9.40158 11302 ft 330 kts 220°
2026-05-01 15:09 45.46652 9.38360 11872 ft 337 kts 209°
2026-05-01 15:09 45.44611 9.36665 12622 ft 341 kts 210°
2026-05-01 15:10 45.42551 9.34951 13353 ft 346 kts 210°
2026-05-01 15:10 45.38334 9.31450 14789 ft 355 kts 209°
2026-05-01 15:10 45.36190 9.29672 15508 ft 359 kts 210°
2026-05-01 15:11 45.34047 9.27897 16189 ft 363 kts 209°
2026-05-01 15:11 45.29636 9.24248 17551 ft 370 kts 210°
2026-05-01 15:11 45.27396 9.22398 18202 ft 375 kts 210°
2026-05-01 15:12 45.25128 9.20528 18812 ft 379 kts 210°
2026-05-01 15:12 45.20526 9.16736 19914 ft 386 kts 210°
2026-05-01 15:12 45.18197 9.14818 20457 ft 389 kts 210°
2026-05-01 15:13 45.11074 9.08968 22073 ft 399 kts 210°
2026-05-01 15:14 45.06220 9.04992 23120 ft 406 kts 211°
2026-05-01 15:14 45.03763 9.02981 23640 ft 410 kts 211°
2026-05-01 15:14 44.99043 8.98412 24561 ft 413 kts 230°
2026-05-01 15:15 44.96594 8.91260 25404 ft 408 kts 264°
2026-05-01 15:15 44.96108 8.83304 26267 ft 411 kts 269°
2026-05-01 15:16 44.95787 8.75210 27132 ft 415 kts 270°
2026-05-01 15:16 44.95506 8.67024 27977 ft 419 kts 270°
2026-05-01 15:17 44.95228 8.58749 28808 ft 423 kts 269°
2026-05-01 15:18 44.94797 8.46213 29990 ft 429 kts 269°
2026-05-01 15:18 44.94648 8.41986 30357 ft 432 kts 269°
2026-05-01 15:19 44.94193 8.29278 31321 ft 437 kts 269°
2026-05-01 15:19 44.93876 8.20672 31955 ft 439 kts 269°
2026-05-01 15:19 44.93715 8.16352 32279 ft 441 kts 269°
2026-05-01 15:20 44.93386 8.07682 32959 ft 442 kts 268°
2026-05-01 15:20 44.93220 8.03357 33410 ft 441 kts 268°
2026-05-01 15:20 44.93051 7.99024 33853 ft 439 kts 268°
2026-05-01 15:21 44.92885 7.94769 34275 ft 437 kts 268°
2026-05-01 15:21 44.92716 7.90488 34640 ft 436 kts 268°
2026-05-01 15:21 44.92580 7.86229 34960 ft 434 kts 272°
2026-05-01 15:21 44.92638 7.81969 35263 ft 434 kts 272°
2026-05-01 15:22 44.92706 7.73442 35345 ft 432 kts 272°
2026-05-01 15:22 44.92745 7.64968 35346 ft 431 kts 272°
2026-05-01 15:23 44.92774 7.56556 35344 ft 431 kts 272°
2026-05-01 15:23 44.92798 7.48092 35344 ft 431 kts 272°
2026-05-01 15:24 44.92812 7.41013 35316 ft 430 kts 272°
2026-05-01 15:24 44.92824 7.32614 35312 ft 430 kts 272°
2026-05-01 15:25 44.92830 7.24181 35313 ft 430 kts 272°
2026-05-01 15:25 44.92829 7.15732 35318 ft 429 kts 272°
2026-05-01 15:26 44.92823 7.07415 35319 ft 428 kts 272°
2026-05-01 15:26 44.92810 6.98999 35320 ft 428 kts 271°
2026-05-01 15:27 44.92791 6.90609 35315 ft 427 kts 271°
2026-05-01 15:28 44.92751 6.78053 35296 ft 426 kts 271°
2026-05-01 15:28 44.92717 6.69678 35288 ft 426 kts 271°
2026-05-01 15:29 44.92654 6.57208 35272 ft 425 kts 271°
2026-05-01 15:30 44.92559 6.41897 35276 ft 424 kts 270°
2026-05-01 15:31 44.92348 6.15645 35266 ft 423 kts 270°
2026-05-01 15:32 44.92184 5.99026 35262 ft 423 kts 270°
2026-05-01 15:34 44.91893 5.74183 35264 ft 423 kts 270°